Eureka, NV

5:11 PM PST on February 22, 2017 (GMT -0800)
Eureka

Weather History for KP68 - February, 2014

Change the Weather History Date:

Tuesday, February 25, 2014

  Actual Average Record
Temperature  
Mean Temperature 45 °F 32 °F  
Max Temperature 62 °F 46 °F 62 °F (1995)
Min Temperature 28 °F 19 °F -6 °F (1993)
Degree Days  
Heating Degree Days 20 33  
Month to date heating degree days 763 906  
Since 1 July heating degree days 4727 5189  
Cooling Degree Days 0 0  
Month to date cooling degree days 0 0  
Year to date cooling degree days 0 0  
Moisture  
Dew Point 19 °F    
Average Humidity 43    
Maximum Humidity 69    
Minimum Humidity 16    
Precipitation  
Precipitation 0.00 in 0.04 in 0.35 in (1969)
Month to date precipitation 0.60 0.77  
Year to date precipitation 1.39 1.51  
Sea Level Pressure  
Sea Level Pressure 29.97 in    
Wind  
Wind Speed 6 mph (South)    
Max Wind Speed 13 mph    
Max Gust Speed 15 mph    
T = Trace of Precipitation, MM = Missing Value Source: NWS Daily Summary

Daily Weather History Graph

Daily Weather History Graph

Search for Another Location

Airport or City:

Trip Planner

Search our weather history database for the weather conditions in past years. The results will help you decide how hot, cold, wet, or windy it might be!

Date:

Astronomy

Feb. 25, 2014 Rise Set
Actual Time 6:22 AM PST 5:31 PM PST
Civil Twilight 5:55 AM PST 5:59 PM PST
Nautical Twilight 5:24 AM PST 6:30 PM PST
Astronomical Twilight 4:53 AM PST 7:01 PM PST
Moon 3:20 AM PST (2/25) 1:43 PM PST (2/25)
Length of Visible Light 12h 03m
Length of Day
11h 09m
Waning Crescent, 17% of the Moon is Illuminated
Feb 25
Waning Crescent
Mar 1
New
Mar 8
First Quarter
Mar 16
Full
Mar 23
Last Quarter

Hourly Weather History & Observations

Time (PST) Temp. Windchill Dew Point Humidity Pressure Visibility Wind Dir Wind Speed Gust Speed Precip Events Conditions
12:53 AM 30.9 °F 23.5 °F 19.9 °F 64% 29.98 in - South 8.1 mph - N/A   Unknown
1:53 AM 32.0 °F 25.6 °F 19.9 °F 61% 29.97 in - SW 6.9 mph - N/A   Unknown
2:53 AM 28.9 °F 22.8 °F 19.0 °F 67% 29.97 in - South 5.8 mph - N/A   Unknown
3:53 AM 34.0 °F 25.0 °F 17.1 °F 50% 29.95 in - SSW 12.7 mph - N/A   Unknown
4:53 AM 30.9 °F 23.5 °F 18.0 °F 59% 29.98 in - South 8.1 mph - N/A   Unknown
5:53 AM 28.9 °F 21.1 °F 19.0 °F 67% 30.02 in - SSW 8.1 mph - N/A   Unknown
6:53 AM 30.9 °F 22.8 °F 19.0 °F 61% 30.07 in - SSW 9.2 mph - N/A   Unknown
7:53 AM 37.0 °F 34.5 °F 21.0 °F 52% 30.03 in - SSW 3.5 mph - N/A   Unknown
8:53 AM 45.0 °F 43.5 °F 19.0 °F 36% 30.03 in - WSW 3.5 mph - N/A   Unknown
9:53 AM 48.9 °F - 18.0 °F 29% 30.03 in - Calm Calm - N/A   Unknown
10:53 AM 54.0 °F - 17.1 °F 23% 30.01 in - Calm Calm - N/A   Unknown
11:53 AM 57.0 °F - 17.1 °F 21% 29.98 in - East 4.6 mph - N/A   Unknown
12:53 PM 60.1 °F - 17.1 °F 19% 29.94 in - NE 5.8 mph - N/A   Unknown
1:53 PM 60.1 °F - 15.1 °F 17% 29.92 in - ENE 4.6 mph - N/A   Unknown
2:53 PM 61.0 °F - 14.0 °F 16% 29.91 in - Calm Calm - N/A   Unknown
3:53 PM 61.0 °F - 15.1 °F 17% 29.88 in - North 5.8 mph - N/A   Unknown
4:53 PM 59.0 °F - 16.0 °F 19% 29.89 in - North 6.9 mph - N/A   Unknown
5:53 PM 46.0 °F 41.0 °F 21.0 °F 37% 29.94 in - NW 10.4 mph - N/A   Unknown
6:53 PM 48.0 °F - 21.0 °F 34% 29.94 in - NNE 3.5 mph - N/A   Unknown
7:53 PM 35.1 °F 32.2 °F 21.9 °F 59% 29.98 in - SE 3.5 mph - N/A   Unknown
8:53 PM 35.1 °F 32.2 °F 23.0 °F 61% 29.96 in - South 3.5 mph - N/A   Unknown
9:53 PM 33.1 °F 28.7 °F 21.0 °F 61% 29.96 in - SSW 4.6 mph - N/A   Unknown
10:53 PM 30.0 °F 22.4 °F 21.0 °F 69% 29.96 in - South 8.1 mph - N/A   Unknown
11:53 PM 30.0 °F 24.1 °F 21.0 °F 69% 29.94 in - SW 5.8 mph - N/A   Unknown